• In Belarus
  • List of Countries
  • For 7 days
  • Water Temperature
  • Satellite Maps
  • Weather Map
  • Weather Widgets
  • user-avatar
    Login

    Hourly Weather Moyamba

    Today, 19 January, Friday

    Time Temperature Precipitation Wind Pressure Humidity
    00:00 +25°C° 0 mm 1 mps 752 mmHg 74%
    01:00 +23°C° 0 mm 0 mps 752 mmHg 78%
    02:00 +23°C° 0 mm 0 mps 752 mmHg 82%
    03:00 +22°C° 0 mm 0 mps 752 mmHg 84%
    04:00 +22°C° 0 mm 0 mps 752 mmHg 86%
    05:00 +22°C° 0 mm 0 mps 752 mmHg 90%
    06:00 +26°C° 0 mm 1 mps 752 mmHg 83%
    07:00 +27°C° 0 mm 1 mps 752 mmHg 76%
    08:00 +28°C° 0 mm 1 mps 753 mmHg 68%
    09:00 +31°C° 0 mm 1 mps 752 mmHg 57%
    10:00 +34°C° 0 mm 1 mps 752 mmHg 45%
    11:00 +37°C° 0 mm 1 mps 752 mmHg 30%
    12:00 +39°C° 0 mm 1 mps 752 mmHg 28%
    13:00 +39°C° 0 mm 2 mps 751 mmHg 26%
    14:00 +40°C° 0 mm 2 mps 750 mmHg 24%
    15:00 +38°C° 0 mm 2 mps 750 mmHg 29%
    16:00 +37°C° 0 mm 2 mps 750 mmHg 33%
    17:00 +36°C° 0 mm 3 mps 750 mmHg 37%
    18:00 +32°C° 0 mm 2 mps 750 mmHg 47%
    19:00 +30°C° 0 mm 2 mps 751 mmHg 57%
    20:00 +28°C° 0 mm 2 mps 751 mmHg 67%
    21:00 +27°C° 0 mm 2 mps 752 mmHg 71%
    22:00 +26°C° 0 mm 1 mps 752 mmHg 75%
    23:00 +26°C° 0 mm 1 mps 752 mmHg 79%

    Tomorrow, 20 January, Saturday

    Time Temperature Precipitation Wind Pressure Humidity
    00:00 +25°C° 0 mm 1 mps 752 mmHg 82%
    01:00 +23°C° 0 mm 0 mps 752 mmHg 84%
    02:00 +23°C° 0 mm 0 mps 752 mmHg 86%
    03:00 +22°C° 0 mm 0 mps 752 mmHg 88%
    04:00 +22°C° 0 mm 0 mps 752 mmHg 90%
    05:00 +22°C° 0 mm 0 mps 752 mmHg 91%
    06:00 +23°C° 0 mm 0 mps 752 mmHg 84%
    07:00 +25°C° 0 mm 0 mps 753 mmHg 77%
    08:00 +26°C° 0 mm 0 mps 753 mmHg 70%
    09:00 +29°C° 0 mm 0 mps 753 mmHg 59%
    10:00 +34°C° 0 mm 1 mps 753 mmHg 49%
    11:00 +37°C° 0 mm 1 mps 753 mmHg 38%
    12:00 +37°C° 0 mm 1 mps 752 mmHg 35%
    13:00 +39°C° 0 mm 1 mps 752 mmHg 32%
    14:00 +40°C° 0 mm 1 mps 751 mmHg 28%
    15:00 +38°C° 0 mm 2 mps 751 mmHg 32%
    16:00 +37°C° 0 mm 2 mps 751 mmHg 36%
    17:00 +35°C° 0 mm 2 mps 750 mmHg 40%
    18:00 +32°C° 0 mm 2 mps 751 mmHg 49%
    19:00 +30°C° 0 mm 2 mps 751 mmHg 59%
    20:00 +28°C° 0 mm 2 mps 752 mmHg 68%
    21:00 +27°C° 0 mm 2 mps 752 mmHg 72%
    22:00 +27°C° 0 mm 2 mps 752 mmHg 76%
    23:00 +26°C° 0 mm 1 mps 752 mmHg 81%

    Day after tomorrow, 21 January, Sunday

    Time Temperature Precipitation Wind Pressure Humidity
    00:00 +26°C° 0 mm 1 mps 752 mmHg 83%
    01:00 +25°C° 0 mm 1 mps 752 mmHg 86%
    02:00 +23°C° 0 mm 0 mps 752 mmHg 89%
    03:00 +22°C° 0 mm 0 mps 752 mmHg 91%
    04:00 +22°C° 0 mm 0 mps 752 mmHg 93%
    05:00 +22°C° 0 mm 0 mps 752 mmHg 94%
    06:00 +25°C° 0 mm 1 mps 752 mmHg 87%
    07:00 +27°C° 0 mm 1 mps 753 mmHg 81%
    08:00 +28°C° 0 mm 1 mps 753 mmHg 74%
    09:00 +31°C° 0 mm 1 mps 753 mmHg 61%
    10:00 +34°C° 0 mm 1 mps 753 mmHg 48%
    11:00 +37°C° 0 mm 1 mps 753 mmHg 36%
    12:00 +39°C° 0 mm 1 mps 752 mmHg 32%
    13:00 +40°C° 0 mm 1 mps 751 mmHg 28%
    14:00 +40°C° 0 mm 1 mps 750 mmHg 25%
    15:00 +39°C° 0 mm 2 mps 750 mmHg 30%
    16:00 +37°C° 0 mm 2 mps 750 mmHg 35%
    17:00 +35°C° 0 mm 3 mps 750 mmHg 40%
    18:00 +33°C° 0 mm 3 mps 751 mmHg 51%
    19:00 +30°C° 0 mm 2 mps 751 mmHg 63%
    20:00 +27°C° 0 mm 2 mps 752 mmHg 74%
    21:00 +27°C° 0 mm 2 mps 752 mmHg 78%
    22:00 +26°C° 0 mm 1 mps 752 mmHg 82%
    23:00 +25°C° 0 mm 1 mps 752 mmHg 86%

    22 January, Monday

    Time Temperature Precipitation Wind Pressure Humidity
    00:00 +25°C° 0 mm 1 mps 752 mmHg 89%
    01:00 +23°C° 0 mm 0 mps 751 mmHg 91%
    02:00 +22°C° 0 mm 0 mps 751 mmHg 94%
    03:00 +22°C° 0 mm 0 mps 751 mmHg 95%
    04:00 +22°C° 0 mm 0 mps 751 mmHg 96%
    05:00 +23°C° 0 mm 1 mps 751 mmHg 97%
    06:00 +25°C° 0 mm 1 mps 752 mmHg 89%
    07:00 +24°C° 0 mm 0 mps 752 mmHg 82%
    08:00 +26°C° 0 mm 0 mps 753 mmHg 75%
    09:00 +29°C° 0 mm 0 mps 753 mmHg 61%
    10:00 +34°C° 0 mm 1 mps 752 mmHg 47%
    11:00 +37°C° 0 mm 1 mps 752 mmHg 33%
    12:00 +39°C° 0 mm 1 mps 751 mmHg 29%
    13:00 +40°C° 0 mm 1 mps 750 mmHg 25%
    14:00 +41°C° 0 mm 2 mps 749 mmHg 21%
    15:00 +39°C° 0 mm 2 mps 749 mmHg 26%
    16:00 +37°C° 0 mm 2 mps 749 mmHg 31%
    17:00 +36°C° 0 mm 2 mps 749 mmHg 36%
    18:00 +32°C° 0 mm 2 mps 750 mmHg 50%
    19:00 +30°C° 0 mm 2 mps 750 mmHg 63%
    20:00 +27°C° 0 mm 2 mps 751 mmHg 77%
    21:00 +27°C° 0 mm 2 mps 751 mmHg 81%
    22:00 +26°C° 0 mm 1 mps 751 mmHg 85%
    23:00 +25°C° 0 mm 1 mps 752 mmHg 89%

    23 January, Tuesday

    Time Temperature Precipitation Wind Pressure Humidity
    00:00 +25°C° 0 mm 1 mps 751 mmHg 91%
    01:00 +23°C° 0 mm 0 mps 751 mmHg 92%
    02:00 +22°C° 0 mm 0 mps 751 mmHg 94%
    03:00 +22°C° 0 mm 0 mps 751 mmHg 95%
    04:00 +22°C° 0 mm 0 mps 751 mmHg 96%
    05:00 +22°C° 0 mm 0 mps 751 mmHg 97%
    06:00 +23°C° 0 mm 0 mps 752 mmHg 91%
    07:00 +26°C° 0 mm 1 mps 752 mmHg 85%
    08:00 +27°C° 0 mm 1 mps 753 mmHg 79%
    09:00 +28°C° 0 mm 0 mps 752 mmHg 66%
    10:00 +31°C° 0 mm 0 mps 752 mmHg 54%
    11:00 +35°C° 0 mm 0 mps 752 mmHg 41%
    12:00 +37°C° 0 mm 1 mps 751 mmHg 37%
    13:00 +39°C° 0 mm 1 mps 751 mmHg 33%
    14:00 +39°C° 0 mm 1 mps 750 mmHg 29%
    15:00 +38°C° 0 mm 2 mps 750 mmHg 33%
    16:00 +36°C° 0 mm 2 mps 749 mmHg 37%
    17:00 +35°C° 0 mm 2 mps 749 mmHg 41%
    18:00 +32°C° 0 mm 2 mps 750 mmHg 52%
    19:00 +30°C° 0 mm 2 mps 751 mmHg 62%
    20:00 +27°C° 0 mm 2 mps 751 mmHg 73%
    21:00 +27°C° 0 mm 2 mps 751 mmHg 77%
    22:00 +26°C° 0 mm 1 mps 751 mmHg 81%
    23:00 +25°C° 0 mm 1 mps 751 mmHg 85%

    24 January, Wednesday

    Time Temperature Precipitation Wind Pressure Humidity
    00:00 +25°C° 0 mm 1 mps 751 mmHg 87%
    01:00 +23°C° 0 mm 0 mps 751 mmHg 89%
    02:00 +22°C° 0 mm 0 mps 751 mmHg 91%
    03:00 +22°C° 0 mm 0 mps 751 mmHg 92%
    04:00 +22°C° 0 mm 0 mps 751 mmHg 94%
    05:00 +21°C° 0 mm 0 mps 751 mmHg 95%
    06:00 +23°C° 0 mm 0 mps 752 mmHg 88%
    07:00 +24°C° 0 mm 0 mps 752 mmHg 80%
    08:00 +26°C° 0 mm 0 mps 753 mmHg 73%
    09:00 +31°C° 0 mm 1 mps 752 mmHg 61%
    10:00 +34°C° 0 mm 1 mps 752 mmHg 50%
    11:00 +37°C° 0 mm 1 mps 752 mmHg 39%
    12:00 +39°C° 0 mm 1 mps 751 mmHg 35%
    13:00 +39°C° 0 mm 1 mps 750 mmHg 31%
    14:00 +40°C° 0 mm 1 mps 750 mmHg 28%
    15:00 +38°C° 0 mm 2 mps 749 mmHg 32%
    16:00 +37°C° 0 mm 2 mps 749 mmHg 36%
    17:00 +35°C° 0 mm 2 mps 749 mmHg 40%
    18:00 +32°C° 0 mm 2 mps 750 mmHg 50%
    19:00 +30°C° 0 mm 2 mps 751 mmHg 59%
    20:00 +28°C° 0 mm 2 mps 751 mmHg 69%
    21:00 +27°C° 0 mm 2 mps 751 mmHg 74%
    22:00 +26°C° 0 mm 1 mps 751 mmHg 78%
    23:00 +26°C° 0 mm 1 mps 751 mmHg 82%
    Show more